EW9039 Weather Reports


Display with metric or nautical units.
time (UTC)temp
F
wind
direction
speed
MPH
gust
MPH
rain 1hr
in
rain 24hr
in
rain mn
in
humidity
%
barometer
mb
20210617081741 69 160 0.0 0.0 0.00 0.00 0.00 37 1008.8
20210617081234 68 160 0.0 0.0 0.00 0.00 0.00 38 1008.9
20210617080728 68 160 0.0 0.0 0.00 0.00 0.00 38 1008.9
20210617080222 68 160 0.0 0.0 0.00 0.00 0.00 39 1009.0
20210617075716 68 160 0.0 0.0 0.00 0.00 0.00 38 1009.0
20210617075210 68 160 0.0 0.0 0.00 0.00 0.00 39 1009.1
20210617074704 68 160 0.0 0.0 0.00 0.00 0.00 41 1009.1
20210617074158 69 160 0.0 0.0 0.00 0.00 0.00 42 1009.0
20210617073652 69 160 0.0 0.0 0.00 0.00 0.00 42 1009.0
20210617073146 69 160 0.0 0.0 0.00 0.00 0.00 42 1009.1
20210617072640 69 160 0.0 0.0 0.00 0.00 0.00 41 1009.1
20210617072137 69 160 0.0 0.0 0.00 0.00 0.00 42 1009.1
20210617071628 69 160 0.0 0.0 0.00 0.00 0.00 42 1009.1
20210617071122 69 160 0.0 0.0 0.00 0.00 0.00 41 1009.2
20210617070616 69 160 0.0 0.0 0.00 0.00 0.00 41 1009.3
20210617070113 69 160 0.0 0.0 0.00 0.00 0.00 41 1009.2
20210617065607 69 160 0.0 0.0 0.00 0.00 0.00 41 1009.3
20210617065058 69 160 0.0 0.0 0.00 0.00 0.00 41 1009.3
20210617064552 69 160 0.0 0.0 0.00 0.00 0.00 41 1009.3
20210617064046 69 160 0.0 0.0 0.00 0.00 0.00 41 1009.3
20210617063540 69 160 0.0 0.0 0.00 0.00 0.00 38 1009.3
20210617063034 69 160 0.0 0.0 0.00 0.00 0.00 40 1009.3
20210617062528 69 160 0.0 0.0 0.00 0.00 0.00 41 1009.3
20210617062022 69 160 0.0 0.0 0.00 0.00 0.00 39 1009.3
20210617061516 69 160 0.0 0.0 0.00 0.00 0.00 41 1009.3
20210617061010 69 160 0.0 0.0 0.00 0.00 0.00 44 1009.4
20210617060504 69 160 0.0 0.0 0.00 0.00 0.00 45 1009.4
20210617055958 69 160 0.0 0.0 0.00 0.00 0.00 44 1009.5
20210617055452 69 160 0.0 0.0 0.00 0.00 0.00 44 1009.5
20210617054946 69 160 0.0 0.0 0.00 0.00 0.00 45 1009.5
20210617054440 69 160 0.0 0.0 0.00 0.00 0.00 46 1009.6
20210617053934 69 160 0.0 0.0 0.00 0.00 0.00 45 1009.6
20210617053428 69 160 0.0 0.0 0.00 0.00 0.00 47 1009.6
20210617052922 68 160 0.0 0.0 0.00 0.00 0.00 47 1009.5
20210617052416 68 160 0.0 0.0 0.00 0.00 0.00 48 1009.5
20210617051910 68 160 0.0 0.0 0.00 0.00 0.00 51 1009.5
20210617051403 67 160 0.0 0.0 0.00 0.00 0.00 46 1009.5
20210617050858 67 160 0.0 0.0 0.00 0.00 0.00 46 1009.5
20210617050352 67 160 0.0 0.0 0.00 0.00 0.00 52 1009.5
20210617045846 66 160 0.0 0.0 0.00 0.00 0.00 51 1009.4
20210617045341 66 160 0.0 0.0 0.00 0.00 0.00 52 1009.4
20210617044834 65 160 0.0 0.0 0.00 0.00 0.00 56 1009.5
20210617044328 65 160 0.0 0.0 0.00 0.00 0.00 59 1009.4
20210617043823 64 160 0.0 0.0 0.00 0.00 0.00 59 1009.4
20210617043315 64 160 0.0 0.0 0.00 0.00 0.00 62 1009.4
20210617042810 64 160 0.0 0.0 0.00 0.00 0.00 66 1009.4
20210617042305 64 160 0.0 0.0 0.00 0.00 0.00 69 1009.4
20210617041759 64 160 0.0 3.0 0.00 0.00 0.00 69 1009.4
20210617041252 64 160 0.0 3.0 0.00 0.00 0.00 69 1009.5
20210617040746 64 160 0.0 5.0 0.00 0.00 0.00 70 1009.5
20210617040240 64 160 0.0 5.0 0.00 0.00 0.00 70 1009.5
20210617035735 64 160 0.0 5.0 0.00 0.00 0.00 69 1009.5
20210617035229 65 160 1.0 5.0 0.00 0.00 0.00 67 1009.5
20210617034723 66 157 0.0 5.0 0.00 0.00 0.00 65 1009.4
20210617034216 67 157 0.0 3.0 0.00 0.00 0.00 64 1009.2
20210617033710 67 157 0.0 8.0 0.00 0.00 0.00 64 1009.3
20210617033204 67 157 2.0 8.0 0.00 0.00 0.00 63 1009.3
20210617032658 67 162 3.0 8.0 0.00 0.00 0.00 62 1009.2
20210617032152 69 152 2.0 8.0 0.00 0.00 0.00 59 1009.3
20210617031646 71 206 0.0 0.0 0.00 0.00 0.00 55 1009.2
20210617031141 73 206 0.0 4.0 0.00 0.00 0.00 52 1009.1
20210617030634 74 206 0.0 4.0 0.00 0.00 0.00 49 1009.1
20210617030129 74 206 1.0 4.0 0.00 0.00 0.00 48 1009.2
20210617025622 75 206 1.0 4.0 0.00 0.00 0.00 47 1009.2
20210617025116 77 206 0.0 5.0 0.00 0.00 0.00 44 1009.2
20210617024610 80 206 0.0 5.0 0.00 0.00 0.00 39 1009.1
20210617024104 82 274 1.0 5.0 0.00 0.00 0.00 36 1009.1
20210617023559 85 274 1.0 9.0 0.00 0.00 0.00 32 1009.1
20210617023059 86 252 2.0 7.0 0.00 0.00 0.00 29 1009.1
20210617022559 87 284 3.0 9.0 0.00 0.00 0.00 26 1009.1
20210617022100 88 300 2.0 9.0 0.00 0.00 0.00 24 1009.0
20210617021600 88 291 2.0 10.0 0.00 0.00 0.00 24 1009.0
20210617021058 89 301 3.0 10.0 0.00 0.00 0.00 24 1008.9
20210617020558 89 280 3.0 10.0 0.00 0.00 0.00 23 1008.9
20210617020059 90 286 3.0 10.0 0.00 0.00 0.00 22 1009.0
20210617015558 91 290 3.0 8.0 0.00 0.00 0.00 22 1008.9
20210617015057 92 219 3.0 8.0 0.00 0.00 0.00 21 1009.0
20210617014558 93 301 2.0 10.0 0.00 0.00 0.00 20 1008.9
20210617014056 93 288 2.0 10.0 0.00 0.00 0.00 19 1009.0
20210617013557 94 286 3.0 10.0 0.00 0.00 0.00 17 1008.9
20210617013056 94 271 3.0 10.0 0.00 0.00 0.00 18 1008.9
20210617012558 94 289 3.0 9.0 0.00 0.00 0.00 17 1008.9
20210617012052 95 329 4.0 9.0 0.00 0.00 0.00 17 1008.8
20210617011553 95 280 4.0 13.0 0.00 0.00 0.00 17 1008.8
20210617011053 95 283 3.0 13.0 0.00 0.00 0.00 16 1008.8
20210617010554 94 267 4.0 14.0 0.00 0.00 0.00 16 1008.8
20210617010055 94 237 4.0 14.0 0.00 0.00 0.00 15 1008.9
20210617005552 94 248 4.0 14.0 0.00 0.00 0.00 15 1008.9
20210617005053 94 287 4.0 14.0 0.00 0.00 0.00 16 1008.9
20210617004553 94 305 4.0 12.0 0.00 0.00 0.00 16 1008.9
20210617004054 94 355 4.0 12.0 0.00 0.00 0.00 17 1009.0
20210617003550 94 331 4.0 12.0 0.00 0.00 0.00 17 1009.0
20210617003050 94 257 4.0 12.0 0.00 0.00 0.00 16 1009.0
20210617002548 95 304 4.0 14.0 0.00 0.00 0.00 17 1009.1
20210617002049 95 343 5.0 14.0 0.00 0.00 0.00 16 1009.1
20210617001548 95 290 5.0 14.0 0.00 0.00 0.00 16 1009.1
20210617001050 96 333 4.0 14.0 0.00 0.00 0.00 16 1009.3
20210617000550 96 322 3.0 11.0 0.00 0.00 0.00 16 1009.3
20210617000050 96 263 3.0 9.0 0.00 0.00 0.00 17 1009.4
20210616235551 96 213 3.0 10.0 0.00 0.00 0.00 18 1009.5
20210616235051 97 265 3.0 10.0 0.00 0.00 0.00 18 1009.5
20210616234549 97 323 3.0 10.0 0.00 0.00 0.00 18 1009.5
20210616234050 97 277 3.0 12.0 0.00 0.00 0.00 18 1009.5
20210616233548 98 298 3.0 12.0 0.00 0.00 0.00 17 1009.6
20210616233050 99 318 3.0 10.0 0.00 0.00 0.00 17 1009.6
20210616232548 99 317 3.0 9.0 0.00 0.00 0.00 17 1009.7
20210616232054 99 255 3.0 12.0 0.00 0.00 0.00 17 1009.7
20210616231552 98 261 3.0 12.0 0.00 0.00 0.00 17 1009.7
20210616231052 98 327 4.0 11.0 0.00 0.00 0.00 17 1009.8
20210616230545 98 319 4.0 11.0 0.00 0.00 0.00 17 1009.9
20210616230039 98 264 3.0 11.0 0.00 0.00 0.00 16 1009.9
20210616225536 98 15 2.0 11.0 0.00 0.00 0.00 16 1010.0
20210616225027 98 296 3.0 11.0 0.00 0.00 0.00 18 1010.0
20210616224523 97 252 4.0 11.0 0.00 0.00 0.00 17 1010.1
20210616224016 97 286 3.0 13.0 0.00 0.00 0.00 17 1010.2
20210616223509 97 245 3.0 13.0 0.00 0.00 0.00 17 1010.3
20210616223004 97 304 3.0 13.0 0.00 0.00 0.00 16 1010.4
20210616222458 96 258 4.0 13.0 0.00 0.00 0.00 18 1010.4
20210616221952 96 248 5.0 12.0 0.00 0.00 0.00 17 1010.5
20210616221445 96 227 5.0 12.0 0.00 0.00 0.00 18 1010.5
20210616220938 95 236 4.0 9.0 0.00 0.00 0.00 19 1010.6
20210616220433 94 222 4.0 9.0 0.00 0.00 0.00 21 1010.6
20210616215927 93 209 5.0 11.0 0.00 0.00 0.00 23 1010.8
20210616215421 93 148 5.0 11.0 0.00 0.00 0.00 21 1010.9
20210616214919 94 219 4.0 9.0 0.00 0.00 0.00 22 1010.9
20210616214420 94 195 4.0 8.0 0.00 0.00 0.00 22 1011.0
20210616213918 94 212 4.0 9.0 0.00 0.00 0.00 24 1011.1
20210616213418 94 178 4.0 10.0 0.00 0.00 0.00 22 1011.1
20210616212916 94 170 5.0 10.0 0.00 0.00 0.00 21 1011.2
20210616212417 94 196 4.0 10.0 0.00 0.00 0.00 22 1011.2
20210616211918 94 182 4.0 8.0 0.00 0.00 0.00 22 1011.3
20210616211416 93 198 4.0 9.0 0.00 0.00 0.00 22 1011.5
20210616210912 93 182 3.0 9.0 0.00 0.00 0.00 22 1011.6
20210616210409 93 255 3.0 7.0 0.00 0.00 0.00 22 1011.7
20210616205908 92 169 3.0 8.0 0.00 0.00 0.00 22 1011.8
20210616205408 92 171 3.0 8.0 0.00 0.00 0.00 23 1011.8
20210616204910 91 189 3.0 7.0 0.00 0.00 0.00 24 1012.0
20210616204410 91 156 4.0 8.0 0.00 0.00 0.00 24 1012.0
20210616203907 90 191 4.0 8.0 0.00 0.00 0.00 24 1012.1
20210616203407 89 183 4.0 8.0 0.00 0.00 0.00 24 1012.3
20210616202909 89 190 4.0 8.0 0.00 0.00 0.00 25 1012.3
20210616202407 89 172 4.0 8.0 0.00 0.00 0.00 25 1012.3
20210616201901 89 184 4.0 8.0 0.00 0.00 0.00 25 1012.4
20210616201355 89 169 4.0 8.0 0.00 0.00 0.00 25 1012.5
20210616200850 89 175 3.0 9.0 0.00 0.00 0.00 26 1012.6
20210616200344 88 168 4.0 9.0 0.00 0.00 0.00 27 1012.6
20210616195837 87 191 5.0 8.0 0.00 0.00 0.00 28 1012.7
20210616195331 87 148 5.0 10.0 0.00 0.00 0.00 28 1012.9
20210616194826 87 162 4.0 10.0 0.00 0.00 0.00 28 1012.9
20210616194319 86 169 5.0 10.0 0.00 0.00 0.00 29 1013.0
20210616193813 86 181 5.0 10.0 0.00 0.00 0.00 29 1013.1
20210616193307 86 170 5.0 10.0 0.00 0.00 0.00 31 1013.1
20210616192801 86 176 5.0 9.0 0.00 0.00 0.00 30 1013.0
20210616192255 85 201 4.0 9.0 0.00 0.00 0.00 32 1013.1
20210616191750 86 153 2.0 9.0 0.00 0.00 0.00 31 1013.1
20210616191243 85 165 1.0 8.0 0.00 0.00 0.00 33 1013.1
20210616190737 85 167 1.0 8.0 0.00 0.00 0.00 34 1013.1
20210616190234 85 165 1.0 8.0 0.00 0.00 0.00 34 1013.2
20210616185725 84 163 1.0 9.0 0.00 0.00 0.00 36 1013.2
20210616185219 84 179 0.0 9.0 0.00 0.00 0.00 36 1013.3
20210616184713 83 199 2.0 10.0 0.00 0.00 0.00 37 1013.4
20210616184207 82 190 3.0 10.0 0.00 0.00 0.00 38 1013.4
20210616183702 82 144 1.0 9.0 0.00 0.00 0.00 37 1013.4
20210616183155 82 165 0.0 8.0 0.00 0.00 0.00 37 1013.4
20210616182649 81 188 0.0 8.0 0.00 0.00 0.00 39 1013.4
20210616182143 80 163 0.0 8.0 0.00 0.00 0.00 40 1013.4
20210616181637 80 185 1.0 8.0 0.00 0.00 0.00 41 1013.5
20210616181133 79 192 2.0 9.0 0.00 0.00 0.00 42 1013.5
20210616180625 78 161 1.0 9.0 0.00 0.00 0.00 42 1013.5
20210616180120 78 153 1.0 10.0 0.00 0.00 0.00 44 1013.5
20210616175613 77 188 3.0 10.0 0.00 0.00 0.00 45 1013.6
20210616175106 77 155 2.0 9.0 0.00 0.00 0.00 46 1013.5
20210616174601 77 167 1.0 9.0 0.00 0.00 0.00 46 1013.5
20210616174055 76 138 1.0 7.0 0.00 0.00 0.00 48 1013.5
20210616173550 76 166 1.0 7.0 0.00 0.00 0.00 49 1013.4
20210616173045 76 163 0.0 6.0 0.00 0.00 0.00 49 1013.4
20210616172538 76 161 0.0 5.0 0.00 0.00 0.00 50 1013.4
20210616172038 75 169 0.0 5.0 0.00 0.00 0.00 50 1013.5
20210616171540 74 165 0.0 5.0 0.00 0.00 0.00 51 1013.4
20210616171037 74 159 0.0 5.0 0.00 0.00 0.00 51 1013.5
20210616170536 74 139 0.0 5.0 0.00 0.00 0.00 51 1013.5
20210616170037 74 149 0.0 3.0 0.00 0.00 0.00 52 1013.6
20210616165534 73 143 0.0 3.0 0.00 0.00 0.00 52 1013.5
20210616165035 73 142 0.0 2.0 0.00 0.00 0.00 53 1013.5
20210616164532 72 142 0.0 2.0 0.00 0.00 0.00 54 1013.6
20210616164032 71 142 0.0 2.0 0.00 0.00 0.00 55 1013.6
20210616163533 70 142 0.0 1.0 0.00 0.00 0.00 56 1013.7
20210616163031 70 134 0.0 1.0 0.00 0.00 0.00 57 1013.8
20210616162531 69 134 0.0 1.0 0.00 0.00 0.00 57 1013.9
20210616162029 69 134 0.0 0.0 0.00 0.00 0.00 57 1013.8
20210616161526 68 130 0.0 0.0 0.00 0.00 0.00 57 1013.8
20210616161025 67 123 0.0 0.0 0.00 0.00 0.00 58 1013.7
20210616160521 67 114 0.0 0.0 0.00 0.00 0.00 58 1013.7
20210616160023 66 114 0.0 0.0 0.00 0.00 0.00 60 1013.7
20210616155522 65 114 0.0 0.0 0.00 0.00 0.00 60 1013.6
20210616155025 64 114 0.0 0.0 0.00 0.00 0.00 62 1013.6
20210616154523 63 114 0.0 0.0 0.00 0.00 0.00 63 1013.7
20210616154013 63 114 0.0 0.0 0.00 0.00 0.00 63 1013.7
20210616153508 62 114 0.0 0.0 0.00 0.00 0.00 64 1013.5
20210616153002 62 114 0.0 0.0 0.00 0.00 0.00 64 1013.5
20210616152456 61 114 0.0 0.0 0.00 0.00 0.00 63 1013.5
20210616151949 60 113 0.0 0.0 0.00 0.00 0.00 68 1013.5
20210616151444 60 95 0.0 0.0 0.00 0.00 0.00 69 1013.5
20210616150937 60 95 0.0 0.0 0.00 0.00 0.00 69 1013.5
20210616150433 60 95 0.0 0.0 0.00 0.00 0.00 68 1013.4
20210616145925 60 95 0.0 0.0 0.00 0.00 0.00 68 1013.3
20210616145423 59 95 0.0 3.0 0.00 0.00 0.00 67 1013.4
20210616144923 59 95 0.0 3.0 0.00 0.00 0.00 67 1013.4
20210616144423 59 95 0.0 3.0 0.00 0.00 0.00 68 1013.3
20210616143923 59 95 0.0 3.0 0.00 0.00 0.00 69 1013.3
20210616143420 58 170 0.0 0.0 0.00 0.00 0.00 68 1013.2
20210616142918 58 170 0.0 0.0 0.00 0.00 0.00 68 1013.2
20210616142418 58 170 0.0 0.0 0.00 0.00 0.00 67 1013.3
20210616141917 58 170 0.0 0.0 0.00 0.00 0.00 67 1013.3
20210616141418 57 170 0.0 0.0 0.00 0.00 0.00 67 1013.3
20210616140914 57 170 0.0 0.0 0.00 0.00 0.00 68 1013.3
20210616140413 57 170 0.0 0.0 0.00 0.00 0.00 68 1013.3
20210616135913 57 170 0.0 0.0 0.00 0.00 0.00 68 1013.3
20210616135411 57 170 0.0 0.0 0.00 0.00 0.00 69 1013.4
20210616134909 57 170 0.0 0.0 0.00 0.00 0.00 69 1013.4
20210616134411 56 170 0.0 0.0 0.00 0.00 0.00 69 1013.4
20210616133909 56 170 0.0 0.0 0.00 0.00 0.00 70 1013.5
20210616133413 56 170 0.0 0.0 0.00 0.00 0.00 70 1013.6
20210616132913 56 170 0.0 0.0 0.00 0.00 0.00 71 1013.5
20210616132412 56 170 0.0 0.0 0.00 0.00 0.00 71 1013.6
20210616131912 56 170 0.0 0.0 0.00 0.00 0.00 70 1013.6
20210616131411 56 170 0.0 0.0 0.00 0.00 0.00 70 1013.5
20210616130914 56 170 0.0 0.0 0.00 0.00 0.00 69 1013.5
20210616130410 56 170 0.0 0.0 0.00 0.00 0.00 70 1013.5
20210616125910 56 170 0.0 0.0 0.00 0.00 0.00 70 1013.4
20210616125411 56 170 0.0 0.0 0.00 0.00 0.00 70 1013.3
20210616124910 56 170 0.0 0.0 0.00 0.00 0.00 70 1013.3
20210616124411 56 170 0.0 0.0 0.00 0.00 0.00 69 1013.3
20210616123910 56 170 0.0 0.0 0.00 0.00 0.00 68 1013.3
20210616123410 56 170 0.0 0.0 0.00 0.00 0.00 69 1013.3
20210616122909 57 170 0.0 0.0 0.00 0.00 0.00 69 1013.3
20210616122410 57 170 0.0 0.0 0.00 0.00 0.00 69 1013.3
20210616121911 57 170 0.0 0.0 0.00 0.00 0.00 69 1013.3
20210616121410 57 170 0.0 0.0 0.00 0.00 0.00 69 1013.4
20210616120911 57 170 0.0 1.0 0.00 0.00 0.00 68 1013.4
20210616120409 57 170 0.0 1.0 0.00 0.00 0.00 69 1013.4
20210616115911 57 170 0.0 1.0 0.00 0.00 0.00 71 1013.4
20210616115409 57 170 0.0 1.0 0.00 0.00 0.00 72 1013.4
20210616114910 57 170 0.0 0.0 0.00 0.00 0.00 71 1013.5
20210616114409 57 170 0.0 0.0 0.00 0.00 0.00 71 1013.5
20210616113909 57 170 0.0 0.0 0.00 0.00 0.00 71 1013.5
20210616113407 57 170 0.0 0.0 0.00 0.00 0.00 70 1013.5
20210616112902 57 170 0.0 0.0 0.00 0.00 0.00 70 1013.6
20210616112356 57 170 0.0 0.0 0.00 0.00 0.00 69 1013.6
20210616111850 57 170 0.0 0.0 0.00 0.00 0.00 68 1013.6
20210616111344 57 170 0.0 0.0 0.00 0.00 0.00 66 1013.7
20210616110839 58 170 0.0 0.0 0.00 0.00 0.00 64 1013.7
20210616110332 58 170 0.0 0.0 0.00 0.00 0.00 63 1013.7
20210616105826 58 170 0.0 0.0 0.00 0.00 0.00 62 1013.6
20210616105322 59 170 0.0 0.0 0.00 0.00 0.00 62 1013.6
20210616104815 59 170 0.0 0.0 0.00 0.00 0.00 61 1013.5
20210616104308 59 170 0.0 0.0 0.00 0.00 0.00 61 1013.5
20210616103803 59 170 0.0 0.0 0.00 0.00 0.00 61 1013.6
20210616103258 59 170 0.0 0.0 0.00 0.00 0.00 61 1013.5
20210616102757 59 170 0.0 0.0 0.00 0.00 0.00 60 1013.4
20210616102259 59 170 0.0 1.0 0.00 0.00 0.00 60 1013.3
20210616101755 59 170 0.0 1.0 0.00 0.00 0.00 59 1013.3
20210616101253 59 170 0.0 2.0 0.00 0.00 0.00 58 1013.2
20210616100753 59 170 0.0 2.0 0.00 0.00 0.00 58 1013.3
20210616100255 59 170 0.0 2.0 0.00 0.00 0.00 59 1013.1
20210616095752 58 170 0.0 2.0 0.00 0.00 0.00 60 1013.0
20210616095251 58 170 0.0 0.0 0.00 0.00 0.00 62 1013.0
20210616094749 57 170 0.0 0.0 0.00 0.00 0.00 64 1013.0
20210616094246 57 170 0.0 0.0 0.00 0.00 0.00 66 1013.0
20210616093746 57 170 0.0 0.0 0.00 0.00 0.00 66 1013.0
20210616093247 56 170 0.0 0.0 0.00 0.00 0.00 68 1013.0
20210616092744 56 170 0.0 0.0 0.00 0.00 0.00 70 1013.1
20210616092243 56 170 0.0 0.0 0.00 0.00 0.00 70 1013.1
20210616091744 56 170 0.0 0.0 0.00 0.00 0.00 71 1013.2
20210616091242 56 170 0.0 0.0 0.00 0.00 0.00 71 1013.3
20210616090742 56 170 0.0 0.0 0.00 0.00 0.00 71 1013.4
20210616090241 56 170 0.0 0.0 0.00 0.00 0.00 73 1013.5
20210616085745 56 170 0.0 0.0 0.00 0.00 0.00 73 1013.5
20210616085238 56 170 0.0 0.0 0.00 0.00 0.00 72 1013.6
20210616084732 56 170 0.0 0.0 0.00 0.00 0.00 72 1013.5
20210616084227 56 170 0.0 0.0 0.00 0.00 0.00 71 1013.5
20210616083720 56 170 0.0 0.0 0.00 0.00 0.00 70 1013.6
20210616083214 56 170 0.0 0.0 0.00 0.00 0.00 71 1013.7
20210616082709 56 170 0.0 0.0 0.00 0.00 0.00 71 1013.7
20210616082203 56 170 0.0 1.0 0.00 0.00 0.00 72 1013.8